This demonstration page uses our WeatherBlox Daily Observations layout. Learn more.

Left ArrowRight Arrow

41.12389, -100.76542

Hourly Observations for November 10, 2015

Temp ( °F °C ) Dew Point ( °F °C ) Humidity (%) Winds ( mph kmh ) Pressure ( in mb ) Visibility ( mi km ) Precip ( " mm )
12:53 am 00:53 Clear 41 5 36 2.2 82 82 S 8 13 29.86 1011 10 16 0.00 0.00
1:53 am 01:53 Clear 41 5 36 2.2 82 82 S 7 11 29.85 1011 10 16 0.00 0.00
2:53 am 02:53 Clear 36 2.2 33 0.6 89 89 NE 5 7 29.85 1011 10 16 0.00 0.00
3:53 am 03:53 Clear 35 1.7 33 0.6 93 93 WSW 3 6 29.85 1011 10 16 0.00 0.00
4:53 am 04:53 Clear with Mist and Fog 30 -1.1 29 -1.7 96 96 SSE 3 6 29.85 1011 4 6 0.00 0.00
5:28 am 05:28 Mostly Cloudy with Mist and Fog 28 -2 27 -3 93 93 Calm 29.97 1015 1 2 0.00 0.00
5:35 am 05:35 Mostly Cloudy with Freezing Fog 29 -1.7 27 -2.8 92 92 Calm 29.97 1015 1 1 0.00 0.00
5:41 am 05:41 Partly Cloudy with Mist and Fog 30 -1.1 28 -2.2 92 92 Calm 29.94 1014 1 2 0.00 0.00
5:43 am 05:43 Partly Cloudy with Mist and Fog 30 -1 28 -2 93 93 Calm 29.94 1014 2 3 0.00 0.00
5:50 am 05:50 Partly Cloudy with Mist and Fog 28 -2 27 -3 93 93 SW 3 6 29.97 1015 4 6 0.00 0.00
5:53 am 05:53 Partly Cloudy with Mist and Fog 31 -0.6 28 -2.2 89 89 Calm 29.87 1012 4 6 0.00 0.00
6:13 am 06:13 Clear with Mist and Fog 28 -2 27 -3 93 93 WSW 3 6 29.97 1015 2 3 0.00 0.00
6:20 am 06:20 Clear with Mist and Fog 28 -2 27 -3 93 93 Calm 29.97 1015 1 1 0.00 0.00
6:27 am 06:27 Clear with Mist and Fog 28 -2.2 27 -2.8 96 96 W 3 6 29.97 1015 2 2 0.00 0.00
6:31 am 06:31 Clear with Mist and Fog 29 -1.7 27 -2.8 92 92 W 3 6 29.97 1015 3 5 0.00 0.00
6:34 am 06:34 Mostly Clear with Mist and Fog 28 -2 27 -3 93 93 WNW 5 7 29.97 1015 2 2 0.00 0.00
6:37 am 06:37 Mostly Cloudy with Mist and Fog 27 -2.8 26 -3.3 96 96 WNW 5 7 29.97 1015 1 1 0.00 0.00
6:48 am 06:48 Mostly Clear with Mist and Fog 27 -3 25 -4 93 93 NW 3 6 29.97 1015 1 2 0.00 0.00
6:57 am 06:57 Mostly Cloudy with Mist and Fog 27 -2.8 25 -3.9 92 92 Calm 29.97 1015 1 1 0.00 0.00
7:08 am 07:08 Mostly Cloudy with Freezing Fog 27 -3 25 -4 93 93 Calm 29.97 1015 1 1 0.00 0.00
7:32 am 07:32 Mostly Cloudy with Freezing Fog 27 -2.8 25 -3.9 92 92 NW 5 7 29.97 1015 0 0 0.00 0.00
7:44 am 07:44 Mostly Cloudy with Freezing Fog 30 -1.1 28 -2.2 92 92 N 3 6 29.94 1014 0 0 0.00 0.00
7:53 am 07:53 Mostly Cloudy with Freezing Fog 30 -1.1 29 -1.7 96 96 N 3 6 29.89 1012 0 0 0.00 0.00
8:25 am 08:25 Mostly Cloudy with Fog 32 0 30 -1 93 93 Calm 29.94 1014 0 0 0.00 0.00
8:42 am 08:42 Mostly Cloudy with Fog 32 0 31 -0.6 96 96 Calm 29.97 1015 0 0 0.00 0.00
8:53 am 08:53 Mostly Cloudy with Fog 32 0 32 0 100 100 Calm 29.90 1013 0 0 0.00 0.00
9:53 am 09:53 Mostly Cloudy with Fog 37 2.8 36 2.2 96 96 W 3 6 29.89 1012 0 0 0.00 0.00
10:20 am 10:20 Mostly Cloudy with Fog 37 3 37 3 100 100 SW 3 6 29.91 1013 1 1 0.00 0.00
10:40 am 10:40 Mostly Cloudy with Mist and Fog 38 3.3 37 2.8 97 97 Calm 29.91 1013 1 2 0.00 0.00
10:50 am 10:50 Cloudy with Mist and Fog 39 4 37 3 93 93 SSE 5 7 29.88 1012 2 3 0.00 0.00
10:53 am 10:53 Cloudy with Mist and Fog 39 3.9 38 3.3 96 96 Calm 29.88 1012 3 4 0.00 0.00
11:00 am 11:00 Cloudy with Mist and Fog 39 4 39 4 100 100 SSE 3 6 29.88 1012 4 6 0.00 0.00
11:53 am 11:53 Mostly Cloudy 44 6.7 41 5 89 89 Calm 29.85 1011 10 16 0.00 0.00
12:07 pm 12:07 Partly Cloudy 46 8 41 5 82 82 Calm 29.85 1011 10 16 0.00 0.00
12:53 pm 12:53 Sunny 51 10.6 42 5.6 71 71 Calm 29.81 1010 10 16 0.00 0.00
1:53 pm 13:53 Sunny 59 15 41 5 51 51 VRB 3 6 29.76 1008 10 16 0.00 0.00
2:53 pm 14:53 Sunny 61 16.1 37 2.8 41 41 SE 6 9 29.73 1007 10 16 0.00 0.00
3:53 pm 15:53 Sunny 60 15.6 43 6.1 53 53 ESE 7 11 29.73 1007 10 16 0.00 0.00
4:53 pm 16:53 Sunny 55 12.8 43 6.1 64 64 ESE 6 9 29.74 1007 10 16 0.00 0.00
5:53 pm 17:53 Clear 45 7.2 39 3.9 80 80 E 7 11 29.77 1008 10 16 0.00 0.00
6:53 pm 18:53 Clear 43 6.1 38 3.3 82 82 ENE 6 9 29.79 1009 10 16 0.00 0.00
7:53 pm 19:53 Clear 37 2.8 35 1.7 93 93 E 6 9 29.79 1009 10 16 0.00 0.00
8:42 pm 20:42 Mostly Clear with Mist and Fog 37 3 36 2 93 93 Calm 29.83 1010 3 4 0.00 0.00
8:47 pm 20:47 Partly Cloudy with Mist and Fog 36 2 36 2 100 100 Calm 29.83 1010 1 2 0.00 0.00
8:53 pm 20:53 Mostly Cloudy with Mist and Fog 35 1.7 34 1.1 96 96 NNE 5 7 29.80 1009 1 2 0.00 0.00
9:10 pm 21:10 Cloudy with Mist and Fog 37 2.8 36 2.2 96 96 N 5 7 29.83 1010 1 1 0.00 0.00
9:38 pm 21:38 Mostly Cloudy with Fog 39 3.9 38 3.3 96 96 N 5 7 29.80 1009 0 0 0.00 0.00
9:46 pm 21:46 Mostly Cloudy with Fog 39 4 37 3 93 93 N 8 13 29.83 1010 0 0 0.00 0.00
9:53 pm 21:53 Mostly Cloudy with Fog 40 4.4 39 3.9 97 97 N 9 15 29.80 1009 0 0 0.00 0.00
10:04 pm 22:04 Mostly Cloudy with Fog 39 4 37 3 93 93 N 6 9 29.80 1009 1 1 0.00 0.00
10:15 pm 22:15 Mostly Cloudy with Mist and Fog 38 3.3 37 2.8 97 97 NW 3 6 29.83 1010 1 2 0.00 0.00
10:27 pm 22:27 Mostly Cloudy with Mist and Fog 37 3 36 2 93 93 Calm 29.83 1010 2 3 0.00 0.00
10:36 pm 22:36 Cloudy 38 3.3 36 2.2 93 93 N 8 13 29.83 1010 9 14 0.00 0.00
10:43 pm 22:43 Mostly Cloudy 42 5.6 39 3.9 89 89 NNE 13 20 29.77 1008 10 16 0.00 0.00
10:53 pm 22:53 Mostly Cloudy 41 5 37 2.8 86 86 NNE 16 26 29.75 1007 10 16 0.00 0.00
11:53 pm 23:53 Mostly Cloudy 40 4.4 32 0 73 73 NE 12 19 29.74 1007 10 16 0.00 0.00

Powered by AerisWeather